Regional Weather Roundup
Issued by NWS Sioux Falls, SD

Home | Current Version | Previous Version | Text Only | Print | Product List | Glossary Off
Versions: 1 2 3 4 5 6 7 8 9 10 11 12 13 14 15 16 17 18 19 20 21 22 23 24 25 26 27 28 29 30 31 32 33 34 35 36 37 38 39 40 41 42 43 44 45 46 47 48 49 50

000
ASUS43 KFSD 111110
RWRFSD

WEATHER ROUNDUP FOR SE SOUTH DAKOTA/SW MINNESOTA/NW IOWA
NATIONAL WEATHER SERVICE SIOUX FALLS SD
600 AM CDT FRI JUL 11 2014

NOTE: "FAIR" INDICATES FEW OR NO CLOUDS BELOW 12,000 FEET WITH NO
SIGNIFICANT WEATHER AND OR OBSTRUCTIONS TO VISIBILITY.


SDZ038>040-050-052>070-111200-
SOUTHEAST SOUTH DAKOTA

CITY           SKY/WX    TMP DP  RH WIND       PRES   REMARKS
CHAMBERLAIN    PTCLDY    71  66  85 SW8       29.85F
HURON          PTCLDY    73  66  78 S8        29.83F
MADISON        FAIR      68  68 100 SW16G25   29.89R
MITCHELL       CLOUDY    72  67  84 S10       29.85F
SIOUX FALLS    CLOUDY    71  66  84 S20G26    29.91F
WINNER         FAIR      73  64  73 S8        29.87F
YANKTON        CLOUDY    70  66  88 S16       29.94S THUNDER
$$

MNZ071-072-080-081-089-090-097-098-111200-
SOUTHWEST MINNESOTA

CITY           SKY/WX    TMP DP  RH WIND       PRES   REMARKS
FAIRMONT       CLOUDY    66  59  77 S18G25    29.98F
JACKSON        CLOUDY    68  61  77 S14G26    29.96F
LUVERNE        CLOUDY    70  64  83 S13       29.92F
MARSHALL       MOCLDY    72  64  78 SW25G32   29.85F
MONTEVIDEO     CLOUDY    72  66  83 SW8       29.88S
PIPESTONE      MOCLDY    70  66  88 S17G24    29.90F
REDWOOD FALLS  MOCLDY    70  66  87 S16G22    29.90R
TRACY          CLOUDY    70  67  90 S17G29    29.89S
WINDOM         CLOUDY    68  64  88 S15G24    29.95R
WORTHINGTON    CLOUDY    70  64  83 S16G26    29.93F
$$

IAZ001>003-012>014-020>022-031-032-NEZ013-014-SDZ071-111200-
NORTHWEST IOWA

CITY           SKY/WX    TMP DP  RH WIND       PRES   REMARKS
CHEROKEE       CLOUDY    67  65  93 S8        30.00F
DENISON        CLOUDY    68  64  88 SE5G13    29.99F
ESTHERVILLE    CLOUDY    66  61  84 S18       29.98F
LE MARS        CLOUDY    70  66  88 S8        29.99R
ORANGE CITY    CLOUDY    70  64  83 S12       29.98S
SHELDON        CLOUDY    68  66  94 S14       29.96S
SIOUX CITY     CLOUDY    71  66  84 SE3       29.99R
SPENCER        LGT RAIN  66  63  90 S15       29.97F
STORM LAKE     CLOUDY    66  66 100 SE9       30.02F
$$

ABBREVIATIONS USED IN REMARKS
   TC - TEMPERATURE IN CELSIUS
  WCI - WIND CHILL INDEX
   HX - HEAT INDEX
  VSB - VISIBILITY



USA.gov is the U.S. government's official web portal to all federal, state and local government web resources and services.